Mazatlan Airport, Mexico

4:52 PM MDT on August 18, 2017 (GMT -0600)
Gen Rafael Buelna International

Weather History for MMMZ - December, 2012

Change the Weather History Date:

Thursday, December 6, 2012

  Actual Average Record
Temperature  
Mean Temperature 71 °F -  
Max Temperature 82 °F 80 °F 89 °F (2015)
Min Temperature 60 °F 57 °F 50 °F (2016)
Cooling Degree Days 6    
Growing Degree Days 21 (Base 50)    
Moisture  
Dew Point 64 °F    
Average Humidity 83    
Maximum Humidity 94    
Minimum Humidity 58    
Precipitation  
Precipitation 0.00 in - - ()
Sea Level Pressure  
Sea Level Pressure 29.88 in    
Wind  
Wind Speed 7 mph ()    
Max Wind Speed 10 mph    
Max Gust Speed -    
Visibility 7.2 miles    
Events      
Averages and records for this station are not official NWS values.
T = Trace of Precipitation, MM = Missing Value Source: Averaged Metar Reports

Daily Weather History Graph

Daily Weather History Graph

Search for Another Location

Airport or City:

Trip Planner

Search our weather history database for the weather conditions in past years. The results will help you decide how hot, cold, wet, or windy it might be!

Date:

Astronomy

Dec. 06, 2012 Rise Set
Actual Time 6:33 AM MST 5:19 PM MST
Civil Twilight 6:08 AM MST 5:43 PM MST
Nautical Twilight 5:40 AM MST 6:11 PM MST
Astronomical Twilight 5:13 AM MST 6:39 PM MST
Moon No Moon Rise 12:06 PM MST (12/6)
Length of Visible Light 11h 34m
Length of Day
10h 46m
Waning Gibbous, 48% of the Moon is Illuminated
Dec 6
Waning Gibbous
Dec 13
New
Dec 19
First Quarter
Dec 28
Full
Jan 4
Last Quarter

Hourly Weather History & Observations

Time (MST) Temp. Heat Index Dew Point Humidity Pressure Visibility Wind Dir Wind Speed Gust Speed Precip Events Conditions
12:46 AM 62.6 °F - 60.8 °F 94% 29.91 in 1.0 mi NE 6.9 mph - N/A   Clear
1:41 AM 62.6 °F - 60.8 °F 94% 29.92 in 1.0 mi North 5.8 mph - N/A   Clear
2:40 AM 60.8 °F - 59.0 °F 94% 29.90 in 1.0 mi NNE 8.1 mph - N/A   Clear
3:41 AM 62.6 °F - 60.8 °F 94% 29.90 in 2.0 mi North 9.2 mph - N/A   Clear
4:42 AM 62.6 °F - 60.8 °F 94% 29.90 in 3.0 mi North 9.2 mph - N/A   Clear
5:40 AM 62.6 °F - 60.8 °F 94% 29.90 in 3.0 mi NNE 8.1 mph - N/A   Clear
6:43 AM 62.6 °F - 60.8 °F 94% 29.91 in 2.0 mi North 8.1 mph - N/A   Scattered Clouds
7:20 AM 64.4 °F - 62.6 °F 94% 29.92 in 5.0 mi North 6.9 mph - N/A   Partly Cloudy
7:43 AM 66.2 °F - 64.4 °F 94% 29.92 in 6.0 mi North 5.8 mph - N/A   Partly Cloudy
8:41 AM 71.6 °F - 68.0 °F 88% 29.94 in 7.0 mi North 8.1 mph - N/A   Clear
9:42 AM 75.2 °F - 69.8 °F 83% 29.94 in 8.0 mi NE 8.1 mph - N/A   Partly Cloudy
10:48 AM 80.6 °F 82.7 °F 66.2 °F 61% 29.93 in 10.0 mi SSE 4.6 mph - N/A   Scattered Clouds
11:47 AM 82.4 °F 85.4 °F 68.0 °F 62% 29.88 in 10.0 mi SSW 10.4 mph - N/A   Scattered Clouds
12:42 PM 82.4 °F 85.4 °F 68.0 °F 62% 29.85 in 10.0 mi South 8.1 mph - N/A   Scattered Clouds
1:49 PM 82.4 °F 84.6 °F 66.2 °F 58% 29.82 in 12.0 mi SW 10.4 mph - N/A   Mostly Cloudy
2:41 PM 82.4 °F 85.4 °F 68.0 °F 62% 29.81 in 12.0 mi SW 9.2 mph - N/A   Scattered Clouds
3:46 PM 78.8 °F - 68.0 °F 69% 29.80 in 11.0 mi SW 9.2 mph - N/A   Mostly Cloudy
4:50 PM 75.2 °F - 66.2 °F 73% 29.81 in 11.0 mi SW 9.2 mph - N/A   Mostly Cloudy
5:42 PM 73.4 °F - 66.2 °F 78% 29.81 in 10.0 mi WSW 8.1 mph - N/A   Mostly Cloudy
6:40 PM 69.8 °F - 64.4 °F 83% 29.84 in 10.0 mi West 5.8 mph - N/A   Mostly Cloudy
7:41 PM 69.8 °F - 66.2 °F 88% 29.85 in 10.0 mi NE 6.9 mph - N/A   Mostly Cloudy
8:45 PM 68.0 °F - 64.4 °F 88% 29.86 in 10.0 mi ENE 5.8 mph - N/A   Mostly Cloudy
9:43 PM 66.2 °F - 62.6 °F 88% 29.87 in 10.0 mi NE 8.1 mph - N/A   Scattered Clouds
10:42 PM 66.2 °F - 62.6 °F 88% 29.87 in 8.0 mi North 6.9 mph - N/A   Partly Cloudy
11:41 PM 66.2 °F - 62.6 °F 88% 29.87 in 8.0 mi North 5.8 mph - N/A   Clear